sat.trackr.live / text

‹ back to catalog

UNKNOWN

NORAD 87706

UNKNOWN UNKNOWN UNKNOWN

§ Identity

Operator
Country
Launch date
Launch site
Launch vehicle
Mass (kg)
RCS (m²)

External: N2YO · Heavens-Above

§ Orbital elements

Epoch: 2026-05-24T00:55:57.770976Z

Period
98.24 min
Inclination
98.6734°
Eccentricity
0.0103826
Mean motion
14.65795869 rev/d
Perigee alt
601.3 km
Apogee alt
747.7 km
Semi-major
7,052.7 km
B*
4.6517e-4
RAAN
341.5312°
Arg perigee
123.6486°
Mean anomaly
26.9034°
Rev number
60,228

§ Raw data

UNKNOWN1 87706U          26144.03886309  .00002690  00000+0  46517-3 0  99942 87706  98.6734 341.5312 0103826 123.6486  26.9034 14.65795869602288

JSON: /api/v1/satellites/87706 · /tle

For live sub-satellite position, see the globe view (requires WebGL).

§ Visibility from observer

Set your observer location to see the next 7 days of passes ≥ 10°. The values pass through the URL so the page stays shareable.

No JS? Fill the form by hand. The geolocation button needs JavaScript.